DateTimeUTC,F1_A11,F1_S11,BsB_S11,BsG_S11,BsR_S11,BbsB_S11,BbsG_S11,BbsR_S11,BaB_A11,BaG_A11,BaR_A11,Tu_S11,T_S11,Uu_S11,U_S11,P_S11,T1_A11
2021-05-03T07:00:00Z,00000200,21000000,,,,,,,-000.18,0000.29,-000.50,17.4,24.6,,00.0,0681.2,31.1
2021-05-03T07:01:00Z,00000200,21000000,,,,,,,-000.02,-000.02,0000.09,17.4,24.6,,00.0,0681.2,31.1
2021-05-03T07:02:00Z,00000200,21000000,,,,,,,0000.10,-000.09,-000.11,17.4,24.6,,00.0,0681.2,31.1
2021-05-03T07:03:00Z,00000200,61000000,,,,,,,0000.30,0000.07,0000.02,17.4,24.6,,00.0,0681.2,31.1
2021-05-03T07:04:00Z,00000200,41000000,0001.55,0000.71,0000.38,0000.75,0000.10,-000.04,0000.73,0000.83,0000.67,17.5,24.4,,00.0,0682.1,31.1
2021-05-03T07:05:00Z,00000200,01000000,0001.19,0000.35,0000.49,0000.50,-000.21,0000.03,0000.41,0000.46,0000.08,17.6,24.4,,00.0,0682.2,31.1
2021-05-03T07:06:00Z,00000200,01000000,0001.80,0000.47,0000.63,0000.82,-000.08,0000.21,0000.15,0000.01,0000.61,17.6,24.4,,00.0,0682.2,31.1
2021-05-03T07:07:00Z,00000200,01000000,0001.61,0000.24,0000.43,-000.04,0000.12,-000.03,0000.88,0000.44,0000.15,17.6,24.4,,00.0,0682.2,31.1
2021-05-03T07:08:00Z,00000200,01000000,0001.59,0000.81,0000.28,0000.58,0000.17,0000.17,0000.19,0000.64,0000.46,17.6,24.4,,00.0,0682.2,31.1
2021-05-03T07:09:00Z,00000200,01000000,0001.54,0000.52,0000.37,0000.62,0000.09,0000.08,0000.54,0000.49,0000.31,17.6,24.4,,00.0,0682.2,31.1
2021-05-03T07:10:00Z,00000200,01000000,0001.64,0000.87,0000.62,0000.25,-000.11,-000.14,0000.17,0000.21,0000.29,17.6,24.4,,00.0,0682.2,31.1
2021-05-03T07:11:00Z,00000200,01000000,0001.58,0000.89,0000.40,0000.38,-000.03,-000.00,0000.49,0000.03,-000.28,17.6,24.4,,00.0,0682.2,31.1
2021-05-03T07:12:00Z,00000200,01000000,0001.81,0000.85,0000.76,0000.25,0000.07,0000.27,0000.34,0000.68,0000.48,17.6,24.4,,00.0,0682.2,31.1
2021-05-03T07:13:00Z,00000200,01000000,0002.09,0000.62,0000.71,0000.48,0000.03,-000.10,0000.78,0000.22,0000.82,17.6,24.4,,00.0,0682.2,31.1
2021-05-03T07:14:00Z,00000200,01000000,0002.53,0001.00,0000.83,0000.69,0000.14,0000.21,0000.25,0000.70,-000.03,17.6,24.4,,00.0,0682.2,31.1
2021-05-03T07:15:00Z,00000200,01000000,0001.98,0001.25,0000.75,0000.65,0000.29,0000.15,0000.64,0000.84,0000.28,17.6,24.4,,00.0,0682.2,31.1
2021-05-03T07:16:00Z,00000200,01000000,0001.55,0001.15,0001.07,0000.70,0000.12,0000.22,0000.89,0000.13,0000.73,17.6,24.4,,00.0,0682.2,31.1
2021-05-03T07:17:00Z,00000200,01000000,0002.44,0001.45,0000.93,0000.97,0000.25,0000.42,0000.78,0000.79,0000.56,17.7,24.4,,00.0,0682.2,31.1
2021-05-03T07:18:00Z,00000200,01000000,0002.16,0001.30,0000.85,0000.54,0000.28,0000.11,0000.57,0000.63,0000.45,17.7,24.4,,00.0,0682.2,31.1
2021-05-03T07:19:00Z,00000200,01000000,0001.92,0000.94,0000.90,0000.22,0000.05,0000.12,0000.88,0001.09,0000.47,17.7,24.4,,00.0,0682.2,31.1
2021-05-03T07:20:00Z,00000200,01000000,0003.07,0001.02,0000.68,0000.68,0000.37,0000.39,0000.47,0000.13,0000.53,17.7,24.4,,00.0,0682.2,31.1
2021-05-03T07:21:00Z,00000200,01000000,0002.85,0001.04,0000.84,0000.50,0000.18,0000.30,0000.96,0000.62,0000.36,17.7,24.4,,00.0,0682.2,31.1
2021-05-03T07:22:00Z,00000200,01000000,0001.50,0001.08,0000.47,0000.67,0000.30,0000.02,0000.61,0000.56,0000.36,17.7,24.4,,00.0,0682.2,31.1
2021-05-03T07:23:00Z,00000200,01000000,0002.18,0001.10,0000.94,0000.65,0000.34,0000.23,0000.87,0001.11,0000.41,17.7,24.4,,00.0,0682.2,31.1
2021-05-03T07:24:00Z,00000200,01000000,0002.84,0001.14,0001.02,0000.59,0000.22,0000.02,0000.54,0000.38,0000.36,17.7,24.4,,00.0,0682.2,31.1
2021-05-03T07:25:00Z,00000200,01000000,0002.23,0001.10,0000.80,0000.73,0000.40,0000.24,0000.68,0000.54,0000.45,17.7,24.4,,00.0,0682.2,31.1
2021-05-03T07:26:00Z,00000200,01000000,0001.70,0001.28,0000.70,0000.71,0000.17,0000.17,0001.22,0001.02,0000.54,17.7,24.4,,00.0,0682.2,31.1
2021-05-03T07:27:00Z,00000200,01000000,0001.17,0001.03,0000.72,0000.47,0000.20,0000.07,0000.28,0000.40,0000.59,17.7,24.4,,00.0,0682.2,31.1
2021-05-03T07:28:00Z,00000200,01000000,0001.58,0001.16,0000.64,0000.28,0000.23,0000.31,0000.76,0000.44,0000.19,17.7,24.4,,00.0,0682.2,31.1
2021-05-03T07:29:00Z,00000200,01000000,0002.24,0001.07,0000.41,0000.23,0000.38,0000.19,0000.32,0000.64,0000.48,17.7,24.4,,00.0,0682.2,31.1
2021-05-03T07:30:00Z,00000200,01000000,0001.81,0000.86,0000.48,0000.60,0000.28,0000.05,0000.81,0000.56,0000.72,17.7,24.4,,00.0,0682.2,31.1
2021-05-03T07:31:00Z,00000200,01000000,0002.64,0001.16,0000.75,0000.54,0000.38,0000.27,0001.17,0000.83,0000.64,17.7,24.4,,00.0,0682.2,31.1
2021-05-03T07:32:00Z,00000200,01000000,0002.04,0000.96,0000.91,0000.82,0000.50,0000.21,0000.32,0000.56,0000.28,17.7,24.4,,00.0,0682.2,31.1
2021-05-03T07:33:00Z,00000200,01000000,0002.64,0000.73,0000.81,0000.56,0000.21,0000.20,0000.44,0000.62,0000.34,17.7,24.4,,00.0,0682.2,31.1
2021-05-03T07:34:00Z,00000200,01000000,0001.52,0000.77,0000.69,0000.25,0000.24,0000.31,0000.71,0000.47,0000.31,17.7,24.4,,00.0,0682.2,31.1
2021-05-03T07:35:00Z,00000200,01000000,0002.03,0001.18,0000.81,0000.64,0000.28,0000.14,0000.65,0000.38,0000.35,17.7,24.4,,00.0,0682.2,31.1
2021-05-03T07:36:00Z,00000200,01000000,0002.60,0000.96,0000.66,0000.78,0000.35,0000.43,0000.65,0000.76,0000.48,17.7,24.4,,00.0,0682.2,31.1
2021-05-03T07:37:00Z,00000200,01000000,0001.95,0001.29,0000.83,0000.38,0000.50,0000.21,0000.75,0000.98,0000.17,17.7,24.4,,00.0,0682.2,31.1
2021-05-03T07:38:00Z,00000200,01000000,0003.04,0001.10,0000.69,0000.54,0000.38,0000.47,0000.98,0000.27,0000.79,17.7,24.4,,00.0,0682.2,31.1
2021-05-03T07:39:00Z,00000200,01000000,0002.25,0001.13,0000.67,0000.36,0000.27,0000.10,0000.50,0001.00,0000.46,17.8,24.4,,00.0,0682.2,31.1
2021-05-03T07:40:00Z,00000200,01000000,0002.10,0000.74,0000.68,0000.13,0000.27,0000.27,0000.53,0000.18,0000.08,17.7,24.4,,00.0,0682.2,31.1
2021-05-03T07:41:00Z,00000200,01000000,0001.44,0000.66,0000.57,0000.60,0000.10,0000.08,0000.63,0000.47,0000.51,17.8,24.4,,00.0,0682.2,31.1
2021-05-03T07:42:00Z,00000200,01000000,0001.47,0000.91,0000.92,0000.67,0000.16,0000.27,0000.43,0000.32,0000.14,17.8,24.4,,00.0,0682.2,31.1
2021-05-03T07:43:00Z,00000200,01000000,0001.45,0000.92,0000.62,0000.54,0000.13,0000.23,0000.59,0000.83,0000.64,17.8,24.4,,00.0,0682.2,31.1
2021-05-03T07:44:00Z,00000200,01000000,0001.83,0000.89,0000.61,0000.92,0000.27,0000.15,0001.05,0000.65,0000.54,17.8,24.4,,00.0,0682.2,31.1
2021-05-03T07:45:00Z,00000200,01000000,0001.64,0000.86,0000.81,0000.54,0000.06,0000.13,0000.67,0000.83,0000.28,17.8,24.4,,00.0,0682.2,31.1
2021-05-03T07:46:00Z,00000200,01000000,0002.14,0000.94,0000.80,0000.46,0000.39,0000.38,0000.83,0000.44,0000.70,17.8,24.4,,00.0,0682.2,31.1
2021-05-03T07:47:00Z,00000200,01000000,0001.35,0001.15,0000.70,0000.41,0000.44,0000.19,0000.14,0000.57,0000.32,17.8,24.4,,00.0,0682.2,31.1
2021-05-03T07:48:00Z,00000200,01000000,0002.27,0001.23,0000.66,0000.18,0000.34,0000.35,0000.68,0000.35,0000.63,17.8,24.4,,00.0,0682.2,31.1
2021-05-03T07:49:00Z,00000200,01000000,0002.67,0001.10,0000.98,0000.75,0000.34,0000.18,0001.42,0001.24,0000.44,17.8,24.4,,00.0,0682.2,31.1
2021-05-03T07:50:00Z,00000200,01000000,0002.28,0001.36,0000.89,0000.10,0000.27,0000.24,0000.96,0000.67,0001.05,17.8,24.4,,00.0,0682.2,31.1
2021-05-03T07:51:00Z,00000200,01000000,0002.13,0001.02,0001.00,0000.63,0000.21,-000.02,0001.20,0001.32,0000.32,17.8,24.4,,00.0,0682.2,31.1
2021-05-03T07:52:00Z,00000200,01000000,0002.75,0001.73,0000.96,0000.97,0000.48,0000.32,0001.30,0001.34,0000.92,17.8,24.4,,00.0,0682.2,31.1
2021-05-03T07:53:00Z,00000200,01000000,0003.71,0001.70,0001.04,0000.91,0000.15,0000.21,0001.32,0001.14,0000.73,17.8,24.4,,00.0,0682.2,31.1
2021-05-03T07:54:00Z,00000200,01000000,0002.68,0001.85,0001.20,0000.22,0000.21,0000.38,0000.68,0000.67,0000.42,17.8,24.4,,00.0,0682.2,31.1
2021-05-03T07:55:00Z,00000200,01000000,0002.11,0001.75,0000.95,-000.09,0000.40,0000.08,0001.21,0000.78,0001.00,17.8,24.4,,00.0,0682.2,31.1
2021-05-03T07:56:00Z,00000200,01000000,0003.50,0002.00,0001.26,0000.58,0000.39,0000.30,0001.13,0001.11,0000.56,17.8,24.4,,00.0,0682.2,31.1
2021-05-03T07:57:00Z,00000200,41000000,,,,,,,-000.36,-000.12,-000.24,17.9,24.5,,00.0,0682.3,31.1
2021-05-03T07:58:00Z,00000200,61000000,,,,,,,0000.34,0000.23,0000.41,17.6,24.6,,00.0,0681.2,31.1
2021-05-03T07:59:00Z,00000200,21000000,,,,,,,-000.07,0000.08,-000.10,17.6,24.7,,00.0,0681.2,31.1
